Terminal Aerodrome Forecast
Issued by NWS

Home | Current Version | Previous Version | Text Only | Print | Product List | Glossary On
Versions: 1 2 3 4 5 6 7 8 9 10 11 12 13 14 15 16 17 18
241
FTUS41 KGYX 101125
TAFRKD
TAF
KRKD 101125Z 1012/1112 29005KT P6SM SKC
     FM101300 29012G21KT P6SM SKC
     FM102200 30008KT P6SM BKN250
      AMD LTD TO CLD VIS AND WIND=

USA.gov is the U.S. government's official web portal to all federal, state and local government web resources and services.